Regional Weather Roundup
Issued by NWS Newport/Morehead, NC

Current Version | Previous Version | Graphics & Text | Print | Product List | Glossary Off
Versions: 1 2 3 4 5 6 7 8 9 10 11 12 13 14 15 16 17 18 19 20 21 22 23 24 25 26 27 28 29 30 31 32 33 34 35 36 37 38 39 40 41 42 43 44 45 46 47 48 49 50

000
ASUS42 KMHX 240624
RWRMHX
WEATHER ROUNDUP FOR EASTERN NORTH CAROLINA
NATIONAL WEATHER SERVICE NEWPORT/MOREHEAD CITY NC
200 AM EDT SUN MAY 24 2015

NOTE: "FAIR" INDICATES FEW OR NO CLOUDS BELOW 12,000 FEET
WITH NO SIGNIFICANT WEATHER AND/OR OBSTRUCTIONS TO VISIBILITY

NCZ015>017-031-032-045>047-102-103-240700-
NORTH COAST

CITY           SKY/WX    TMP DP  RH WIND       PRES   REMARKS
EDENTON        CLEAR     55  52  89 CALM      30.40S
ELIZABETH CITY   N/A     59  54  83 SE5       30.40F
KITTY HAWK     CLEAR     60  55  81 E5        30.39F
MANTEO         CLEAR     61  55  79 E7        30.40S

$$

NCZ045>047-081-094-103-104-240700-
CENTRAL COAST

CITY           SKY/WX    TMP DP  RH WIND       PRES   REMARKS
FRISCO         CLEAR     61  55  81 NE7       30.38F
SWANQUARTER      N/A     57 N/A N/A NE3       30.36S

$$

NCZ095-097-098-100-101-240700-
SOUTHERN COAST

CITY           SKY/WX    TMP DP  RH WIND       PRES   REMARKS
BEAUFORT       CLEAR     62  59  90 NE3       30.37F
CEDAR ISLAND     N/A     68 N/A N/A E7G13     30.41S
JACKSONVILLE   CLEAR     62  55  77 E6        30.37F
PINEY ISLAND   CLEAR    N/A N/A N/A E7        30.37F
WILMINGTON     CLEAR     62  59  90 CALM      30.36F


$$

NCZ011>013-027>030-043-044-078>080-089-090>093-098-240700-
COASTAL PLAIN

CITY           SKY/WX    TMP DP  RH WIND       PRES   REMARKS
AHOSKIE        CLEAR     55  48  78 CALM      30.40S
CLINTON        CLEAR     60  57  89 CALM      30.39S
ELIZABETHTOWN  CLEAR     59  56  88 CALM      30.37F
GOLDSBORO      NOT AVBL
GREENVILLE     CLEAR     59  54  82 CALM      30.39S
HAVELOCK       CLEAR     59  53  80 CALM      30.39F
KENANSVILLE    CLEAR     56  53  92 CALM      30.40S
KINSTON        CLEAR     57  54  90 CALM      30.39F
NEW BERN       CLEAR     59  55  87 CALM      30.39F
RICHLANDS      CLEAR     55  48  76 CALM      30.39S
ROCKY MOUNT    CLEAR     59  53  80 CALM      30.39F
WASHINGTON     CLEAR     57  52  82 CALM      30.40R
WHITEVILLE     CLEAR     58  55  88 CALM      30.36F

$$

AMZ130-135-150-152-154-156-158-170-250-252-270-ANZ085-086-088-633-658-670-240700-
MARINE OBSERVATIONS

STATION/POSITION TIME  TEMP    WIND        PRES    WAVE   SWELL
                       AIR SEA DIR/SP/G            HT/PER HT/PER
                 (UTC) (F)     (DEG/KT/KT) (MB)    (FT/S) (FT/S)
CHESAPEAKE LIGHT 0600   61     150/ 13/ 14 1029.9
64 E VA BEACH    0550   62 60  130/  8/  8 1029.3    2/ 6   2/ 6
DUCK             0600   62 64  110/ 12/ 13   N/A
2 E DUCK         0511      63                N/A     2/ 5
OREGON INLET     0600   63 72   70/  7/ 10   N/A
13E OREGON INLT  0600      63                N/A     2/ 5
HATTERAS CG      0600   64 74   70/  5/  7   N/A
DIAMOND BUOY     0550   72 78  120/  8/ 10 1028.5    3/ 6   3/ 6
CAPE LOOKOUT     0600   73     110/  9/ 10 1028.0
BEAUFORT LAB     0600   66 74   50/  3/  5   N/A
27 SE WRIGHTSVLE 0600   71 77  130/ 12/ 14   N/A
5 SE WRIGHTSVLE  0508   75 76  120/ 14/ 17 1028.1
225 S CAPE HAT   0550   72 74   80/ 19/ 23 1026.7    7/ 6
41 SE CHARLESTON 0550   75 75  100/ 17/ 21 1025.9    5/ 6

$$


USA.gov is the U.S. government's official web portal to all federal, state and local government web resources and services.